Flag for Marshall Islands Weather past 2 weeks in Majuro, Marshall Islands

83 °F


Feels Like: 92 °F
Forecast: 83 / 87 °F
Wind: 7 mph from East

Location: Majuro Atoll

Current Time: Nov 29, 2015 at 7:27:23 AM

Latest Report: Nov 29, 2015 at 6:56 AM

Visibility: 15 mi

Pressure: 29.75 "Hg

Humidity: 82%

Dew point: 77 °F

Location of MajuroLocation

Historic Weather in Majuro — Graph


Majuro temperature yesterday

Maximum temperature yesterday: 86 °F (at 2:55 PM)
Minimum temperature yesterday: 82 °F (at 2:54 AM)
Average temperature yesterday: 84 °F

Past Weeks' High & Low Weather Summary

High89 °F (Nov 27, 11:56 AM)94% (Nov 15, 2:51 AM)29.85 "Hg (Nov 15, 2:51 AM)
Low78 °F (Nov 15, 4:56 PM)72% (Nov 26, 12:53 PM)29.65 "Hg (Nov 20, 2:52 PM)
Average83 °F83%29.75 "Hg
* Reported Nov 14 5:50 AM — Nov 29 5:51 AM, Majuro, Weather by CustomWeather, © 2015

Note: Actual official high and low records may vary slightly from our data, if they occured in-between our weather recording intervals... More about our weather records


Majuro weather history for previous 24 hours

Time TempWeatherWind HumidityBarometerVisibility
5:51 AM
Sun, Nov 29
83 °FOvercast.7 mph83%29.74 "Hg15 mi
4:51 AM83 °FPartly cloudy.9 mph83%29.72 "Hg15 mi
3:53 AM82 °FPassing clouds.9 mph83%29.72 "Hg15 mi
2:52 AM83 °FPassing clouds.7 mph81%29.74 "Hg15 mi
1:55 AM83 °FPassing clouds.7 mph81%29.74 "Hg15 mi
12:53 AM83 °FPassing clouds.9 mph82%29.75 "Hg15 mi
11:55 PM
Sat, Nov 28
83 °FPassing clouds.9 mph82%29.76 "Hg15 mi
10:55 PM83 °FPassing clouds.9 mph80%29.77 "Hg15 mi
9:55 PM84 °FPassing clouds.9 mph81%29.77 "Hg15 mi
8:53 PM84 °FMostly cloudy.9 mph80%29.77 "Hg15 mi
7:55 PM84 °FMostly cloudy.9 mph81%29.75 "Hg15 mi
6:55 PM84 °FMore clouds than sun.9 mph81%29.72 "Hg15 mi
5:58 PM84 °FMore clouds than sun.9 mph81%29.71 "Hg15 mi
4:51 PM85 °FMore clouds than sun.9 mph80%29.69 "Hg15 mi
3:55 PM85 °FCloudy.12 mph78%29.68 "Hg15 mi
2:55 PM86 °FCloudy.12 mph75%29.68 "Hg15 mi
1:50 PM83 °FCloudy.12 mph79%29.70 "Hg15 mi
12:56 PM86 °FCloudy.8 mph76%29.72 "Hg15 mi
11:51 AM86 °FMore clouds than sun.14 mph73%29.74 "Hg15 mi
10:52 AM85 °FMore clouds than sun.16 mph78%29.77 "Hg15 mi
9:55 AM85 °FMore clouds than sun.13 mph77%29.78 "Hg15 mi
8:52 AM83 °FMore clouds than sun.14 mph82%29.78 "Hg15 mi
7:50 AM83 °FMore clouds than sun.12 mph81%29.78 "Hg15 mi
Weather by CustomWeather, © 2015

See weather overviewHow to use our weather pages